Location: Enborne
(51.3833°N, 1.3667°W)
Time: 12:45:05
(UTC+00:00)

Meteor 1-24 Rocket - Pass Details

Date: 18 September 2020
Orbit: 790 x 927 km, 81.2° (Epoch: 23 October)

Event Time Altitude Azimuth Distance (km) Brightness Sun altitude
Rises 20:47:13 0° 346° (NNW) 3,341 7.6 -23.4°
Reaches altitude 10° 20:49:34 10° 346° (NNW) 2,420 6.7 -23.7°
Maximum altitude 20:55:03 81° 260° (W) 854 3.7 -24.4°
Enters shadow 20:56:34 50° 181° (S) 1,067 3.9 -24.6°
